Location: Borowce
(50.8255°N, 19.6209°E)
Time: 07:03:38
(UTC+00:00)

Spot 2 Rocket - Pass Details

Date: 19 May 2025
Orbit: 753 x 766 km, 98.3° (Epoch: 16 June)

Event Time Altitude Azimuth Distance (km) Brightness Sun altitude
Exits shadow 20:17:42 - 189° (S) 2,370 5.6 -12.8°
Reaches altitude 10° 20:17:57 10° 190° (S) 2,275 5.5 -12.8°
Maximum altitude 20:22:43 43° 262° (W) 1,050 4.4 -13.2°
Drops below altitude 10° 20:27:32 10° 334° (NNW) 2,296 7.4 -13.6°
Sets 20:29:58 0° 341° (NNW) 3,228 8.5 -13.8°
